Orbital Elements at Epoch 2459200.5 (2020-Dec-17.0) TDB
Reference: JPL 16 (heliocentric ecliptic J2000)
Element | Value | Uncertainty (1-sigma) | Units |
e | .1349853235268874 | 4.3064e-08 | |
a | 2.639914660981468 | 1.6137e-08 | au |
q | 2.283564926385512 | 1.1575e-07 | au |
i | 2.94555710884292 | 4.6818e-06 | deg |
node | 130.0317611824492 | 0.00011178 | deg |
peri | 40.59327484803713 | 0.000114 | deg |
M | 277.3357260183797 | 2.4492e-05 | deg |
tp | 2459560.248186866431 (2021-Dec-11.74818687) | 0.0001082 | TDB |
period | 1566.690675837915 4.29 | 1.4365e-05 3.933e-08 | d yr |
n | .2297837126064856 | 2.1069e-09 | deg/d |
Q | 2.996264395577425 | 1.8315e-08 | au |
|
| | Orbit Determination Parameters
Additional Information
|